TimeAKST,TemperatureF,Dew PointF,Humidity,Sea Level PressureIn,VisibilityMPH,Wind Direction,Wind SpeedMPH,Gust SpeedMPH,PrecipitationIn,Events,Conditions,WindDirDegrees,DateUTC
12:16 AM,30.2,26.6,86,29.72,1.5,North,6.9,-,N/A,,Overcast,350,2012-12-09 09:16:00
12:36 AM,30.2,26.6,86,29.72,2.0,NNW,4.6,-,N/A,,Overcast,340,2012-12-09 09:36:00
12:56 AM,30.2,26.6,86,29.71,2.0,NNW,5.8,-,N/A,,Overcast,330,2012-12-09 09:56:00
1:16 AM,30.2,26.6,86,29.71,2.0,Calm,Calm,-,N/A,,Overcast,0,2012-12-09 10:16:00
1:36 AM,30.2,26.6,86,29.69,2.5,NNW,3.5,-,N/A,,Overcast,330,2012-12-09 10:36:00
1:56 AM,30.2,26.6,86,29.68,4.0,Calm,Calm,-,N/A,,Overcast,0,2012-12-09 10:56:00
2:16 AM,28.4,24.8,86,29.67,10.0,NNW,3.5,-,N/A,,Overcast,330,2012-12-09 11:16:00
2:36 AM,30.2,26.6,86,29.67,9.0,South,3.5,-,N/A,,Overcast,180,2012-12-09 11:36:00
2:56 AM,33.8,30.2,87,29.67,10.0,SSE,8.1,-,N/A,,Overcast,160,2012-12-09 11:56:00
3:16 AM,35.6,28.4,75,29.67,10.0,SSE,9.2,-,N/A,,Overcast,160,2012-12-09 12:16:00
3:36 AM,35.6,28.4,75,29.67,10.0,SSE,12.7,19.6,N/A,,Overcast,150,2012-12-09 12:36:00
3:56 AM,33.8,28.4,81,29.66,10.0,SE,13.8,-,N/A,,Overcast,140,2012-12-09 12:56:00
4:16 AM,33.8,28.4,81,29.66,10.0,SE,16.1,19.6,N/A,,Overcast,140,2012-12-09 13:16:00
4:36 AM,35.6,28.4,75,29.65,9.0,SSE,16.1,-,N/A,,Overcast,150,2012-12-09 13:36:00
4:56 AM,33.8,28.4,81,29.64,10.0,SE,18.4,25.3,N/A,,Overcast,140,2012-12-09 13:56:00
5:16 AM,35.6,30.2,81,29.66,10.0,SE,15.0,-,N/A,,Overcast,140,2012-12-09 14:16:00
5:36 AM,35.6,30.2,81,29.67,10.0,SE,13.8,-,N/A,,Overcast,140,2012-12-09 14:36:00
5:56 AM,35.6,30.2,81,29.69,9.0,SE,15.0,-,N/A,,Overcast,130,2012-12-09 14:56:00
6:16 AM,35.6,30.2,81,29.69,5.0,ESE,12.7,-,N/A,,Overcast,120,2012-12-09 15:16:00
6:36 AM,35.6,30.2,81,29.69,10.0,ESE,17.3,-,N/A,,Overcast,120,2012-12-09 15:36:00
6:56 AM,35.6,30.2,81,29.71,8.0,ESE,10.4,-,N/A,,Overcast,120,2012-12-09 15:56:00
7:16 AM,35.6,32.0,87,29.71,10.0,SE,9.2,-,N/A,,Overcast,140,2012-12-09 16:16:00
7:36 AM,35.6,30.2,81,29.70,10.0,ESE,13.8,-,N/A,,Overcast,110,2012-12-09 16:36:00
7:56 AM,35.6,32.0,87,29.70,10.0,ESE,19.6,27.6,N/A,,Overcast,110,2012-12-09 16:56:00
8:16 AM,37.4,33.8,87,29.72,10.0,ESE,5.8,-,N/A,,Overcast,120,2012-12-09 17:16:00
8:36 AM,37.4,33.8,87,29.72,10.0,SSE,4.6,-,N/A,,Overcast,150,2012-12-09 17:36:00
8:56 AM,37.4,33.8,87,29.72,10.0,ESE,4.6,-,N/A,,Overcast,120,2012-12-09 17:56:00
9:16 AM,37.4,32.0,81,29.74,9.0,SSE,5.8,-,N/A,,Overcast,160,2012-12-09 18:16:00
9:36 AM,37.4,33.8,87,29.74,9.0,SSW,12.7,25.3,N/A,,Overcast,210,2012-12-09 18:36:00
9:56 AM,37.4,33.8,87,29.74,10.0,South,8.1,-,N/A,,Overcast,190,2012-12-09 18:56:00
10:16 AM,37.4,33.8,87,29.74,10.0,South,11.5,16.1,N/A,,Overcast,190,2012-12-09 19:16:00
10:36 AM,39.2,33.8,81,29.74,8.0,WSW,9.2,18.4,N/A,,Overcast,240,2012-12-09 19:36:00
10:56 AM,37.4,33.8,87,29.75,10.0,SE,10.4,-,N/A,,Overcast,130,2012-12-09 19:56:00
11:16 AM,37.4,32.0,81,29.75,10.0,SSE,9.2,-,N/A,,Overcast,150,2012-12-09 20:16:00
11:36 AM,37.4,33.8,87,29.77,8.0,Calm,Calm,-,N/A,,Overcast,0,2012-12-09 20:36:00
11:56 AM,37.4,33.8,87,29.76,10.0,East,4.6,-,N/A,,Overcast,80,2012-12-09 20:56:00
12:16 PM,37.4,33.8,87,29.76,7.0,ESE,6.9,-,N/A,,Overcast,110,2012-12-09 21:16:00
12:36 PM,37.4,33.8,87,29.77,4.0,ESE,8.1,-,N/A,,Overcast,120,2012-12-09 21:36:00
12:56 PM,37.4,33.8,87,29.78,3.0,SE,8.1,-,N/A,,Overcast,140,2012-12-09 21:56:00
1:16 PM,37.4,33.8,87,29.77,10.0,ESE,11.5,-,N/A,,Mostly Cloudy,120,2012-12-09 22:16:00
1:36 PM,37.4,33.8,87,29.77,10.0,SE,6.9,-,N/A,,Overcast,140,2012-12-09 22:36:00
1:56 PM,37.4,35.6,93,29.77,10.0,South,9.2,16.1,N/A,,Overcast,170,2012-12-09 22:56:00
2:16 PM,37.4,33.8,87,29.77,10.0,SSE,10.4,-,N/A,,Overcast,150,2012-12-09 23:16:00
2:36 PM,37.4,33.8,87,29.77,10.0,SSE,4.6,-,N/A,,Overcast,160,2012-12-09 23:36:00
2:56 PM,39.2,33.8,81,29.78,10.0,ESE,4.6,-,N/A,,Overcast,120,2012-12-09 23:56:00
3:16 PM,37.4,33.8,87,29.79,10.0,ESE,4.6,-,N/A,,Overcast,110,2012-12-10 00:16:00
3:36 PM,37.4,32.0,81,29.79,10.0,SE,4.6,-,N/A,,Overcast,130,2012-12-10 00:36:00
3:56 PM,37.4,33.8,87,29.79,9.0,ESE,8.1,-,N/A,,Overcast,110,2012-12-10 00:56:00
4:16 PM,37.4,32.0,81,29.79,7.0,ESE,9.2,-,N/A,,Overcast,110,2012-12-10 01:16:00
4:36 PM,37.4,33.8,87,29.80,10.0,ESE,9.2,-,N/A,,Overcast,120,2012-12-10 01:36:00
4:56 PM,37.4,33.8,87,29.80,9.0,Calm,Calm,-,N/A,,Overcast,0,2012-12-10 01:56:00
5:16 PM,37.4,33.8,87,29.81,10.0,South,4.6,-,N/A,,Overcast,170,2012-12-10 02:16:00
5:36 PM,37.4,33.8,87,29.81,10.0,SE,6.9,-,N/A,,Overcast,130,2012-12-10 02:36:00
5:56 PM,37.4,33.8,87,29.80,10.0,ESE,8.1,-,N/A,,Overcast,110,2012-12-10 02:56:00
6:16 PM,37.4,33.8,87,29.81,10.0,SSE,10.4,-,N/A,,Overcast,150,2012-12-10 03:16:00
6:36 PM,37.4,33.8,87,29.81,10.0,South,8.1,-,N/A,,Overcast,180,2012-12-10 03:36:00
6:56 PM,39.2,33.8,81,29.81,10.0,SSE,10.4,16.1,N/A,,Overcast,150,2012-12-10 03:56:00
7:16 PM,37.4,33.8,87,29.82,10.0,SE,10.4,-,N/A,,Overcast,140,2012-12-10 04:16:00
7:36 PM,37.4,33.8,87,29.83,10.0,SSE,8.1,-,N/A,,Overcast,150,2012-12-10 04:36:00
7:56 PM,37.4,33.8,87,29.83,9.0,SE,6.9,-,N/A,,Overcast,130,2012-12-10 04:56:00
8:16 PM,37.4,33.8,87,29.84,10.0,SE,8.1,16.1,N/A,,Overcast,130,2012-12-10 05:16:00
8:36 PM,39.2,33.8,81,29.84,10.0,SE,5.8,-,N/A,,Overcast,140,2012-12-10 05:36:00
8:56 PM,39.2,35.6,87,29.85,8.0,Calm,Calm,-,N/A,,Overcast,0,2012-12-10 05:56:00
9:16 PM,39.2,35.6,87,29.86,8.0,SW,9.2,18.4,N/A,,Overcast,230,2012-12-10 06:16:00
9:36 PM,39.2,35.6,87,29.85,10.0,SSE,6.9,-,N/A,,Overcast,160,2012-12-10 06:36:00
9:56 PM,39.2,35.6,87,29.85,10.0,SSE,10.4,-,N/A,,Mostly Cloudy,160,2012-12-10 06:56:00
10:16 PM,39.2,33.8,81,29.87,9.0,South,9.2,-,N/A,,Overcast,190,2012-12-10 07:16:00
10:36 PM,39.2,35.6,87,29.87,10.0,SSW,10.4,-,N/A,,Overcast,200,2012-12-10 07:36:00
10:56 PM,37.4,35.6,93,29.88,8.0,South,11.5,17.3,N/A,,Overcast,180,2012-12-10 07:56:00
11:16 PM,37.4,33.8,87,29.88,10.0,South,9.2,-,N/A,,Overcast,170,2012-12-10 08:16:00
11:56 PM,37.4,33.8,87,29.89,6.0,Calm,Calm,-,N/A,,Overcast,0,2012-12-10 08:56:00